Location: Doux
(49.5045°N, 4.4321°E)
Time: 14:52:22
(UTC+00:00)

SL-14 R/B - Pass Details

Date: 23 May 2024
Orbit: 508 x 541 km, 82.4° (Epoch: 16 June)

Event Time Altitude Azimuth Distance (km) Brightness Sun altitude
Exits shadow 01:01:26 30° 247° (WSW) 965 4.2 -17.5°
Maximum altitude 01:02:35 37° 286° (WNW) 825 4.1 -17.4°
Drops below altitude 10° 01:06:12 10° 355° (N) 1,759 6.9 -17.2°
Sets 01:08:27 0° 4° (N) 2,647 8.2 -17.1°
